Regional Weather Roundup
Issued by NWS

Home | Current Version | Previous Version | Text Only | Print | Product List | Glossary Off
Versions: 1 2 3 4 5 6 7 8 9 10 11 12 13 14 15 16 17 18 19 20 21 22 23 24 25 26 27 28 29 30 31 32 33 34 35 36 37 38 39 40 41 42 43 44 45 46 47 48 49 50

000
ASUS43 KLOT 091103
RWRIL

ILLINOIS REGIONAL WEATHER ROUNDUP
NATIONAL WEATHER SERVICE CHICAGO/ROMEOVILLE IL
500 AM CST TUE FEB 09 2016

NOTE: "FAIR" INDICATES FEW OR NO CLOUDS BELOW 12,000 FEET WITH NO
SIGNIFICANT WEATHER AND/OR OBSTRUCTIONS TO VISIBILITY.

* THESE STATIONS ARE NOT UNDER NWS QUALITY CONTROL. THEY ALSO MAY NOT
  REPORT WEATHER SUCH AS PRECIPITATION OR FOG.

ILZ001-002-007-009-015-016-024-091200-
NORTHWEST ILLINOIS

CITY           SKY/WX    TMP DP  RH WIND       PRES   REMARKS
MOLINE         CLOUDY    15   8  73 NW15      29.88R WCI   0
STERLING*      CLOUDY    16   9  73 NW16      29.81R WCI   0
$$

ILZ003-004-008-010-011-017-018-091200-
NORTH CENTRAL ILLINOIS

CITY           SKY/WX    TMP DP  RH WIND       PRES   REMARKS
ROCKFORD       LGT SNOW  15  10  80 NW16      29.82R BLWGSNOWWCI  -1
FREEPORT*      FLURRIES  13   7  76 N16       29.83R WCI  -3
DE KALB*       LGT SNOW  16  12  84 NW15G22   29.78R WCI   1
$$

ILZ005-006-012>014-019>023-091200-
NORTHEAST ILLINOIS

CITY           SKY/WX    TMP DP  RH WIND       PRES   REMARKS
CHICAGO-OHARE  LGT SNOW  17  13  84 NW14      29.75R FOG     WCI   3
CHICAGO-MIDWAY LGT SNOW  19  12  74 NW10G18   29.75R FOG     WCI   7
AURORA         LGT SNOW  18  13  80 NW14      29.78R WCI   4
LANSING*       LGT SNOW  19  15  84 NW8       29.75R WCI   9
WAUKEGAN       LGT SNOW  16  13  88 NW12      29.74R FOG     WCI   3
DUPAGE AIRPORT LGT SNOW  17  11  77 NW15      29.75S WCI   2
WHEELING       LGT SNOW  17  13  84 NW14      29.76R FOG     WCI   3
NORTHERLY ISL    N/A     19  15  84 W10         N/A  WCI   8
$$

LMZ740>746-091200-
SOUTHERN LAKE MICHIGAN

STATION/POSITION SKY/WX   TEMP    WIND        PRES    VSBY  WAVE
                          AIR SEA DIR/SP/G                  HT/PER
                          (F)     (DEG/KT/KT) (MB)    (MI)  (FT/S)
HARRISON CRIB              20     300/ 19/ 22   N/A
BURNHAM HARBOR             19     310/ 12/ 17   N/A
CALUMET HARBOR             19     270/  8/ 16 1006.3R
BURNS HARBOR               23     300/ 17/ 19 1006.8R
MICHIGAN CITY              24     260/ 23/ 25   N/A
$$

ILZ025>027-034>036-040-047-049-050-058-095>099-091200-
WEST-CENTRAL ILLINOIS

CITY           SKY/WX    TMP DP  RH WIND       PRES   REMARKS
QUINCY         LGT SNOW  16   9  74 NW20      29.92R WCI  -1
MACOMB*        CLOUDY    16  12  86 NW21G29   29.92R WCI  -2
$$

ILZ028>032-037-038-041>044-048-051>054-059>061-091200-
CENTRAL ILLINOIS

CITY           SKY/WX    TMP DP  RH WIND       PRES   REMARKS
BLOOMINGTON    LGT SNOW  17  13  84 NW14      29.81R FOG     WCI   3
DECATUR        CLOUDY    18  10  71 NW17      29.82R WCI   3
PEORIA         CLOUDY    16   9  74 NW10G21   29.85R WCI   4
SPRINGFIELD    FLURRIES  18  12  77 NW13G24   29.86R WCI   5
TAYLORVILLE    NOT AVBL
$$

ILZ033-039-045-046-055>057-062-063-091200-
EAST-CENTRAL ILLINOIS

CITY           SKY/WX    TMP DP  RH WIND       PRES   REMARKS
CHAMPAIGN      CLOUDY    19  13  77 NW16      29.79R WCI   4
MATTOON        CLOUDY    18  11  74 NW15      29.81R WCI   4
$$

ILZ079-100>102-091200-
SOUTHWEST ILLINOIS

CITY           SKY/WX    TMP DP  RH WIND       PRES   REMARKS
BELLEVILLE     FLURRIES  20  14  77 NW15      29.89R WCI   6
CAHOKIA*       FLURRIES  21  13  71 NW15      29.91S WCI   8
SPARTA*        LGT SNOW  19  17  89 NW8       29.91R WCI   9
$$

ILZ064>066-069>071-074>076-080>082-084>086-088>090-092>094-091200-
SOUTH-CENTRAL ILLINOIS

CITY           SKY/WX    TMP DP  RH WIND       PRES   REMARKS
CARBONDALE     CLOUDY    20  13  74 NW13G22   29.90S WCI   7
MT. VERNON     CLOUDY    19   9  63 W3        29.88R
CENTRALIA*     CLOUDY    20  15  79 NW16G22   29.87R WCI   6
SALEM*         CLOUDY    21  13  71 NW10      29.86S WCI  10
$$

ILZ067-068-072-073-078-083-087-091-091200-
SOUTHEAST ILLINOIS

CITY           SKY/WX    TMP DP  RH WIND       PRES   REMARKS
LAWRENCEVILLE  FLURRIES  20  15  81 W15       29.84S WCI   6
HARRISBURG*    FLURRIES  22  17  81 NW8       29.89R WCI  13
ROBINSON*      FLURRIES  19  14  84 W10       29.84S WCI   7
CARMI*         CLOUDY    21  16  80 W10       29.87S WCI  10
$$

ABBREVIATIONS USED IN REMARKS
   TC - TEMPERATURE IN CELSIUS
  WCI - WIND CHILL INDEX
   HX - HEAT INDEX
  VSB - VISIBILITY
$$




USA.gov is the U.S. government's official web portal to all federal, state and local government web resources and services.